This is the latest recevied weather packets stored in our database for station/object 4S6DRJ-13. If no packets are shown the sender has not sent any weather packets the latest 10 day(s).
| Time | Temp. | Humidity | Pressure | Rain* | Wind** | Luminosity | Snow |
|---|---|---|---|---|---|---|---|
| 1787906053 | 30.56° C | 74% | 1008.4 hPa | 0 mm | 1.79 m/s, 15° | 312 W/m² | - |
| 1787905991 | 30.56° C | 74% | 1008.3 hPa | 0 mm | 2.24 m/s, 55° | 268 W/m² | - |
| 1787905930 | 30.56° C | 74% | 1008.3 hPa | 0 mm | 1.79 m/s, 288° | 990 W/m² | - |
| 1787905869 | 30.56° C | 74% | 1008.5 hPa | 0 mm | 1.79 m/s, 263° | 374 W/m² | - |
| 1787905808 | 30.56° C | 75% | 1008.4 hPa | 0 mm | 0.89 m/s, 121° | 1112 W/m² | - |
| 1787905747 | 30.56° C | 75% | 1008.4 hPa | 0 mm | 2.24 m/s, 254° | 976 W/m² | - |
| 1787905686 | 30.56° C | 74% | 1008.4 hPa | 0 mm | 2.68 m/s, 339° | 1102 W/m² | - |
| 1787905625 | 30.56° C | 74% | 1008.3 hPa | 0 mm | 2.68 m/s, 186° | 445 W/m² | - |
| 1787905564 | 30.56° C | 74% | 1008.3 hPa | 0 mm | 2.68 m/s, 187° | 1121 W/m² | - |
| 1787905503 | 30.56° C | 74% | 1008.4 hPa | 0 mm | 1.79 m/s, 326° | 396 W/m² | - |
| 1787905442 | 30.56° C | 74% | 1008.5 hPa | 0 mm | 2.68 m/s, 4° | 378 W/m² | - |
| 1787905381 | 30.56° C | 74% | 1008.4 hPa | 0 mm | 2.24 m/s, 346° | 1119 W/m² | - |
| 1787905320 | 30.56° C | 74% | 1008.5 hPa | 0 mm | 2.68 m/s, 31° | 777 W/m² | - |
| 1787905259 | 30.56° C | 75% | 1008.5 hPa | 0 mm | 0.89 m/s, 302° | 300 W/m² | - |
| 1787905198 | 30.56° C | 77% | 1008.4 hPa | 0 mm | 0.45 m/s, 214° | 331 W/m² | - |
| 1787905137 | 30.56° C | 76% | 1008.5 hPa | 0 mm | 1.79 m/s, 214° | 1114 W/m² | - |
| 1787905076 | 30.56° C | 75% | 1008.4 hPa | 0 mm | 3.13 m/s, 165° | 505 W/m² | - |
| 1787905016 | 30.56° C | 75% | 1008.4 hPa | 0 mm | 3.13 m/s, 221° | 1101 W/m² | - |
| 1787904955 | 30.56° C | 74% | 1008.3 hPa | 0 mm | 4.02 m/s, 273° | 1118 W/m² | - |
| 1787904893 | 31.11° C | 75% | 1008.5 hPa | 0 mm | 1.79 m/s, 236° | 383 W/m² | - |
| 1787904833 | 31.11° C | 74% | 1008.3 hPa | 0 mm | 0.89 m/s, 217° | 340 W/m² | - |
| 1787904772 | 31.11° C | 74% | 1008.5 hPa | 0 mm | 1.34 m/s, 151° | 372 W/m² | - |
| 1787904710 | 31.11° C | 73% | 1008.7 hPa | 0 mm | 2.24 m/s, 165° | 346 W/m² | - |
| 1787904649 | 31.11° C | 73% | 1008.5 hPa | 0 mm | 1.79 m/s, 56° | 340 W/m² | - |
| 1787904589 | 30.56° C | 75% | 1008.5 hPa | 0 mm | 1.34 m/s, 31° | 1112 W/m² | - |
* Rain latest hour (hover to see other rain measurements)
** Current wind speed in m/s (hover to see current wind gust speed)